Lac Benoit, Quebec

6:36 AM EST on December 12, 2017 (GMT -0500)
Lac Benoit

Weather History for CWDE - July, 2013

Change the Weather History Date:

Saturday, July 6, 2013

  Actual Average Record
Temperature  
Mean Temperature 69 °F -  
Max Temperature 82 °F - - ()
Min Temperature 51 °F - - ()
Cooling Degree Days 4    
Growing Degree Days 19 (Base 50)    
Moisture  
Dew Point 58 °F    
Average Humidity 77    
Maximum Humidity 100    
Minimum Humidity 39    
Precipitation  
Precipitation 0.20 in - - ()
Sea Level Pressure  
Sea Level Pressure 29.76 in    
Wind  
Wind Speed 9 mph ()    
Max Wind Speed 30 mph    
Max Gust Speed -    
T = Trace of Precipitation, MM = Missing Value Source: Averaged Metar Reports

Daily Weather History Graph

Daily Weather History Graph

Search for Another Location

Airport or City:

Trip Planner

Search our weather history database for the weather conditions in past years. The results will help you decide how hot, cold, wet, or windy it might be!

Date:

Astronomy

Jul. 06, 2013 Rise Set
Actual Time 4:35 AM EDT 9:02 PM EDT
Civil Twilight 3:49 AM EDT 9:48 PM EDT
Nautical Twilight 2:38 AM EDT 10:58 PM EDT
Astronomical Twilight 1:21 AM EDT 12:16 AM EDT
Moon 3:26 AM EDT (7/6) 7:33 PM EDT (7/6)
Length of Visible Light 17h 59m
Length of Day
16h 27m
Waning Crescent, 2% of the Moon is Illuminated
Jul 6
Waning Crescent
Jul 8
New
Jul 15
First Quarter
Jul 22
Full
Jul 29
Last Quarter

Hourly Weather History & Observations

Time (EDT) Temp. Dew Point Humidity Pressure Visibility Wind Dir Wind Speed Gust Speed Precip Events Conditions
12:00 AM 61.3 °F 55.8 °F 82% 29.82 in - SSE 3.5 mph - N/A   Unknown
1:00 AM 62.6 °F 56.7 °F 81% 29.80 in - SSE 5.8 mph - N/A   Unknown
2:00 AM 67 °F 55 °F 56% 29.80 in - SE 10.4 mph - -  
2:00 AM 67.1 °F 55.0 °F 65% 29.80 in - SE 10.4 mph - N/A   Unknown
3:00 AM 66.6 °F 54.5 °F 65% 29.79 in - SE 10.4 mph - N/A   Unknown
4:00 AM 63.1 °F 54.0 °F 72% 29.78 in - SE 5.8 mph - N/A   Unknown
5:00 AM 61.3 °F 54.5 °F 78% 29.78 in - SSE 8.1 mph - N/A   Unknown
6:00 AM 63.7 °F 55.6 °F 75% 29.79 in - SSE 6.9 mph - N/A   Unknown
7:00 AM 64.4 °F 58.1 °F 80% 29.80 in - SSE 5.8 mph - N/A   Unknown
8:00 AM 68 °F 60 °F 68% 29.80 in - SW 5.8 mph - -  
8:00 AM 68.4 °F 59.7 °F 74% 29.80 in - SW 5.8 mph - N/A   Unknown
9:00 AM 67.1 °F 59.7 °F 77% 29.81 in - West 10.4 mph - N/A   Unknown
10:00 AM 67.1 °F 61.3 °F 82% 29.80 in - West 9.2 mph - N/A   Unknown
11:00 AM 70.5 °F 63.7 °F 79% 29.78 in - SSW 6.9 mph - N/A   Unknown
12:00 PM 77.5 °F 59.5 °F 54% 29.73 in - WSW 17.3 mph - N/A   Unknown
1:00 PM 78.1 °F 56.8 °F 48% 29.70 in - WSW 16.1 mph - N/A   Unknown
2:00 PM 77 °F 56 °F 39% 29.68 in - West 20.7 mph - -  
2:00 PM 76.6 °F 56.7 °F 50% 29.68 in - West 20.7 mph - N/A   Unknown
3:00 PM 65.7 °F 61.3 °F 86% 29.73 in - WNW 29.9 mph - N/A   Unknown
4:00 PM 65.8 °F 61.9 °F 87% 29.73 in - WNW 10.4 mph - N/A   Unknown
5:00 PM 65.5 °F 62.4 °F 90% 29.72 in - West 9.2 mph - N/A   Unknown
6:00 PM 66.9 °F 61.9 °F 84% 29.71 in - WSW 11.5 mph - N/A   Unknown
7:00 PM 63.0 °F 63.0 °F 100% 29.71 in - West 16.1 mph - N/A   Unknown
8:00 PM 62 °F 62 °F 99% 29.73 in - WNW 15.0 mph - -  
8:00 PM 61.7 °F 61.7 °F 100% 29.73 in - WNW 15.0 mph - N/A   Unknown
9:00 PM 59.9 °F 59.5 °F 99% 29.75 in - NW 15.0 mph - N/A   Unknown
10:00 PM 56.5 °F 55.9 °F 98% 29.78 in - NNW 15.0 mph - N/A   Unknown
11:00 PM 51.3 °F 48.7 °F 91% 29.82 in - NNW 11.5 mph - N/A   Unknown